Weather History for KCDJ - September, 2013

Change the Weather History Date:

Friday, September 27, 2013

  Actual Average (KIRK) Record (KIRK)
Temperature  
Mean Temperature 76 °F 60 °F  
Max Temperature 87 °F 71 °F 91 °F (1953)
Min Temperature 66 °F 48 °F 30 °F (1942)
Degree Days  
Heating Degree Days 0 7  
Month to date heating degree days 78  
Since 1 July heating degree days 85  
Cooling Degree Days 11 1  
Month to date cooling degree days 78  
Year to date cooling degree days 922  
Growing Degree Days 26 (Base 50)    
Moisture  
Dew Point 61 °F    
Average Humidity 63    
Maximum Humidity 84    
Minimum Humidity 40    
Precipitation  
Precipitation 0.00 in 0.12 in 1.52 in (1999)
Month to date precipitation 3.81  
Year to date precipitation 31.22  
Sea Level Pressure  
Sea Level Pressure 29.93 in    
Wind  
Wind Speed 7 mph (SSE)    
Max Wind Speed 14 mph    
Max Gust Speed 24 mph    
T = Trace of Precipitation, MM = Missing Value Source: NWS Daily Summary

Daily Weather History Graph

Daily Weather History Graph

Search for Another Location

Airport or City:

Trip Planner

Search our weather history database for the weather conditions in past years. The results will help you decide how hot, cold, wet, or windy it might be!

Date:

Astronomy

Sep. 27, 2013 Rise Set
Actual Time 7:06 AM CDT 7:02 PM CDT
Civil Twilight 6:40 AM CDT 7:29 PM CDT
Nautical Twilight 6:08 AM CDT 8:00 PM CDT
Astronomical Twilight 5:36 AM CDT 8:32 PM CDT
Moon 12:03 AM CDT (9/27) 2:41 PM CDT (9/27)
Length of Visible Light 12h 49m
Length of Day
11h 55m
Last Quarter, 45% of the Moon is Illuminated
Sep 27
Last Quarter
Oct 4
New
Oct 11
First Quarter
Oct 18
Full
Oct 26
Last Quarter

Hourly Weather History & Observations

Time (CDT) Temp. Heat Index Dew Point Humidity Pressure Visibility Wind Dir Wind Speed Gust Speed Precip Events Conditions
12:52 AM 70.0 °F - 62.1 °F 76% 29.93 in - SE 5.8 mph - N/A   Unknown
1:52 AM 68.0 °F - 62.1 °F 81% 29.94 in - SE 3.5 mph - N/A   Unknown
2:52 AM 68.0 °F - 62.1 °F 81% 29.95 in - SE 5.8 mph - N/A   Unknown
3:52 AM 66.9 °F - 62.1 °F 84% 29.95 in - Variable 4.6 mph - N/A   Unknown
4:52 AM 66.9 °F - 61.0 °F 81% 29.96 in - SE 4.6 mph - N/A   Unknown
5:52 AM 66.0 °F - 61.0 °F 84% 29.97 in - SE 4.6 mph - N/A   Unknown
6:52 AM 68.0 °F - 61.0 °F 78% 29.98 in - SSE 8.1 mph - N/A   Unknown
7:52 AM 68.0 °F - 62.1 °F 81% 29.99 in - SSE 5.8 mph - N/A   Unknown
8:52 AM 71.1 °F - 63.0 °F 75% 29.99 in - SSE 5.8 mph 16.1 mph N/A   Unknown
9:52 AM 75.0 °F - 64.0 °F 69% 29.99 in - SSE 6.9 mph - N/A   Unknown
10:52 AM 79.0 °F - 64.0 °F 60% 29.98 in - South 12.7 mph 20.7 mph N/A   Unknown
11:52 AM 82.0 °F 83.4 °F 64.0 °F 54% 29.96 in - South 10.4 mph - N/A   Unknown
12:52 PM 84.0 °F 84.5 °F 62.1 °F 47% 29.94 in - SSE 9.2 mph 18.4 mph N/A   Unknown
1:52 PM 84.9 °F 84.4 °F 59.0 °F 41% 29.92 in - South 13.8 mph 19.6 mph N/A   Unknown
2:52 PM 84.9 °F 84.8 °F 60.1 °F 43% 29.89 in - SSE 12.7 mph 17.3 mph N/A   Unknown
3:52 PM 86.0 °F 85.4 °F 59.0 °F 40% 29.88 in - South 10.4 mph 24.2 mph N/A   Unknown
4:52 PM 84.9 °F 84.4 °F 59.0 °F 41% 29.88 in - SE 12.7 mph 23.0 mph N/A   Unknown
5:52 PM 84.0 °F 83.8 °F 59.0 °F 43% 29.88 in - SSE 11.5 mph 18.4 mph N/A   Unknown
6:52 PM 81.0 °F 81.3 °F 59.0 °F 47% 29.88 in - SSE 6.9 mph - N/A   Unknown
7:52 PM 78.1 °F - 59.0 °F 52% 29.88 in - SE 6.9 mph - N/A   Unknown
8:52 PM 75.9 °F - 60.1 °F 58% 29.90 in - SE 4.6 mph - N/A   Unknown
9:52 PM 73.9 °F - 62.1 °F 66% 29.90 in - SE 9.2 mph - N/A   Unknown
10:52 PM 73.9 °F - 62.1 °F 66% 29.90 in - SSE 9.2 mph - N/A   Unknown
11:52 PM 72.0 °F - 63.0 °F 73% 29.89 in - SSE 5.8 mph - N/A   Unknown